TimeCST,TemperatureF,Dew PointF,Humidity,Sea Level PressureIn,VisibilityMPH,Wind Direction,Wind SpeedMPH,Gust SpeedMPH,PrecipitationIn,Events,Conditions,WindDirDegrees,DateUTC
12:55 AM,21.9,19.9,92,30.29,4.0,Calm,Calm,-,N/A,,Clear,0,2014-03-06 06:55:00
1:55 AM,18.0,17.1,96,30.29,3.0,Calm,Calm,-,N/A,,Clear,0,2014-03-06 07:55:00
2:03 AM,17.1,15.1,92,30.23,2.5,SSE,3.5,-,N/A,,Clear,160,2014-03-06 08:03:00
2:22 AM,18.0,17.1,96,30.22,1.8,South,3.5,-,N/A,,Clear,170,2014-03-06 08:22:00
2:44 AM,19.9,18.0,92,30.22,2.0,South,3.5,-,N/A,,Clear,190,2014-03-06 08:44:00
2:55 AM,19.0,17.1,92,30.27,2.5,Calm,Calm,-,N/A,,Clear,0,2014-03-06 08:55:00
3:13 AM,19.9,19.0,96,30.21,2.5,Calm,Calm,-,N/A,,Scattered Clouds,0,2014-03-06 09:13:00
3:21 AM,19.9,18.0,92,30.21,2.0,SSE,3.5,-,N/A,,Mostly Cloudy,150,2014-03-06 09:21:00
3:30 AM,21.0,19.9,96,30.21,1.5,South,4.6,-,N/A,,Overcast,170,2014-03-06 09:30:00
3:40 AM,21.9,21.9,100,30.21,0.8,South,5.8,-,N/A,,Overcast,180,2014-03-06 09:40:00
3:55 AM,23.0,21.9,96,30.25,0.2,SSE,6.9,-,N/A,Fog,Light Freezing Fog,160,2014-03-06 09:55:00
4:55 AM,23.0,23.0,100,30.25,0.2,SSW,6.9,-,N/A,Fog,Light Freezing Fog,210,2014-03-06 10:55:00
5:55 AM,24.1,24.1,100,30.23,0.2,South,9.2,-,N/A,Fog,Light Freezing Fog,170,2014-03-06 11:55:00
6:55 AM,24.1,24.1,100,30.23,0.2,South,10.4,-,N/A,Fog,Light Freezing Fog,180,2014-03-06 12:55:00
7:55 AM,25.0,25.0,100,30.21,0.2,South,8.1,-,N/A,Fog,Light Freezing Fog,190,2014-03-06 13:55:00
8:55 AM,27.0,26.1,96,30.21,0.2,South,10.4,-,N/A,Fog,Light Freezing Fog,190,2014-03-06 14:55:00
9:55 AM,27.0,27.0,100,30.18,0.2,South,12.7,-,N/A,Fog,Light Freezing Fog,180,2014-03-06 15:55:00
10:55 AM,28.0,28.0,100,30.17,0.2,South,9.2,-,N/A,Fog,Light Freezing Fog,170,2014-03-06 16:55:00
11:55 AM,30.0,28.9,96,30.14,1.0,SSE,17.3,-,N/A,,Overcast,160,2014-03-06 17:55:00
12:11 PM,30.0,30.0,100,30.09,1.8,SSE,13.8,-,N/A,,Overcast,160,2014-03-06 18:11:00
12:29 PM,30.9,30.0,96,30.07,2.0,SSE,16.1,-,N/A,,Overcast,150,2014-03-06 18:29:00
12:55 PM,30.9,30.9,100,30.11,2.5,SSE,15.0,-,N/A,,Overcast,160,2014-03-06 18:55:00
1:04 PM,30.9,30.0,96,30.05,3.0,SSE,16.1,-,N/A,,Overcast,160,2014-03-06 19:04:00
1:24 PM,32.0,30.0,92,30.05,4.0,South,12.7,-,N/A,,Overcast,170,2014-03-06 19:24:00
1:52 PM,33.8,30.2,87,30.02,5.0,South,17.3,-,N/A,,Overcast,180,2014-03-06 19:52:00
1:55 PM,34.0,30.9,89,30.07,5.0,South,16.1,-,N/A,,Overcast,180,2014-03-06 19:55:00
2:28 PM,37.0,30.9,79,30.01,5.0,SSE,13.8,-,N/A,,Haze,160,2014-03-06 20:28:00
2:46 PM,39.9,32.0,73,29.99,7.0,South,16.1,23.0,N/A,,Partly Cloudy,190,2014-03-06 20:46:00
2:55 PM,42.1,32.0,67,30.03,7.0,SSE,15.0,23.0,N/A,,Partly Cloudy,160,2014-03-06 20:55:00
3:55 PM,44.1,33.1,65,29.96,8.0,South,23.0,27.6,N/A,,Clear,170,2014-03-06 21:55:00
4:55 PM,45.0,33.1,63,29.95,8.0,South,18.4,-,N/A,,Unknown,170,2014-03-06 22:55:00
5:55 PM,39.9,32.0,73,29.94,8.0,South,15.0,-,N/A,,Clear,170,2014-03-06 23:55:00
6:55 PM,37.9,32.0,79,29.92,9.0,SSE,18.4,-,N/A,,Clear,160,2014-03-07 00:55:00
7:55 PM,37.0,32.0,82,29.91,8.0,South,18.4,27.6,N/A,,Clear,170,2014-03-07 01:55:00
8:55 PM,37.0,33.1,86,29.91,8.0,South,18.4,-,N/A,,Clear,180,2014-03-07 02:55:00
9:55 PM,37.0,34.0,89,29.88,7.0,South,20.7,28.8,N/A,,Clear,180,2014-03-07 03:55:00
10:55 PM,37.9,34.0,86,29.85,6.0,South,25.3,34.5,N/A,,Clear,190,2014-03-07 04:55:00
11:55 PM,37.9,34.0,86,29.85,5.0,South,20.7,26.5,N/A,,Clear,190,2014-03-07 05:55:00